Нью-Хейвен

США     41°18′26″N   72°55′32″W
темп.,
°C
ветер,
м/с
пор.,
м/с
влажн.,
%
обл.,
%
осадки,
мм/ч
давл.,
гПа
погр.,
м
21 октября, чт
чт2123:00+18з256712 0.0 101698
02:00+17з38725 0.0 1015218
05:00+16з337510 0.0 101598
08:00+16з2373100 0.0 1016105
11:00+20юз465331 0.0 1015514
14:00+22юз58465 0.0 1014799
17:00+22ююз595261 0.0 1012575
20:00+19ююз612736 0.0 1012575
22 октября, пт
пт2223:00+18ююз613775 0.0 1010569
02:00+19юз8157496 0.0 1009881
05:00+18зюз611695 0.0 1008711
08:00+16з69775 0.0 1010792
11:00+18з575525 0.0 10121221
14:00+19з675236 0.0 10111655
17:00+18зсз4655100 0.0 10121307
20:00+16сз4663100 0.0 1014512
23 октября, сб
сб2323:00+15ссз3368100 0.0 1015484
02:00+13с3465100 0.0 1015422
05:00+12ссз3461100 0.0 1015365
08:00+12ссз2259100 0.0 1016343
11:00+14сз3454100 0.0 1016808
14:00+12зсз2365100 0.1 1015470
17:00+15з356048 0.0 1015866
20:00+12сз23795 0.4 1016185
24 октября, вс
вс2423:00+12зсз35755 0.1 1017209
02:00+11зсз37755 0.1 1017252
05:00+10з37750 0.0 1018271
08:00+10зсз48750 0.0 1019326
11:00+14з57485 0.0 10201017
14:00+13зюз5756100 0.1 1018752
17:00+13з3463100 0.1 1018553
20:00+11св2282100 1.3 1018222
25 октября, пн
пн2523:00+10ссв4692100 5.0 1018425
02:00+10ссв4792100 10.1 1018531
05:00+9св5891100 3.2 1019583
08:00+9св4791100 4.8 1020578
11:00+9св4790100 1.2 1021632
14:00+8св5792100 3.8 1019514
17:00+9св6993100 1.5 1018566
20:00+9всв6990100 5.4 1019692